Wetbulb
32.32 34.05 31.13 29.50 29.82 29.89 31.52 30.57 29.58 29.55 28.53 27.96 30.42 30.25 32.72 33.32 32.38 33.09 33.70 32.98 33.28 33.38 34.92 34.63 34.31 34.29 33.54 33.39 33.36 33.15 33.61 33.86 35.63 36.09 35.76 34.68 33.32 33.78 33.80 33.99 33.93 33.95 33.74 33.86
31.96 27.42 26.00 27.42 28.35 28.90 29.55 28.62 29.06 28.13 27.47 27.38 29.18 28.54 32.70 33.42 32.28 33.59 34.18 33.14 33.32 33.55 32.57 32.72 33.48 33.52 33.38 33.22 32.99 32.84 32.66 33.11 33.91 35.05 34.75 35.34 34.64 33.40 33.30 33.62 33.27 33.26 33.30 33.09
29.23 25.37 26.29 26.83 26.65 26.92 26.55 27.27 26.32 26.36 27.17 26.82 26.88 30.35 29.78 31.04 33.00 33.73 34.78 35.40 34.72 34.06 32.38 32.80 32.71 33.04 33.72 33.02 33.05 32.94 32.93 32.77 33.19 33.15 33.99 33.88 34.00 34.32 33.60 32.92 32.68 32.26 32.77 32.78
25.49 26.11 25.87 26.33 24.91 25.91 24.69 24.88 25.09 24.75 26.28 26.34 26.74 26.40 31.70 30.50 29.66 30.55 32.42 34.02 34.66 34.31 34.16 33.97 33.24 33.28 33.71 34.03 34.43 33.82 33.28 33.08 32.50 32.62 33.33 33.10 33.05 31.67 31.60 32.14 32.54 32.37 32.28 32.08
22.60 23.96 24.67 24.89 23.23 24.96 23.78 25.37 25.12 24.65 25.28 23.83 24.38 24.55 32.41 27.41 31.18 32.57 32.55 33.16 34.42 34.90 34.44 33.89 33.57 33.95 34.48 34.63 34.02 34.16 33.58 32.95 32.43 32.38 32.62 33.40 32.14 32.32 32.39 32.52 31.47 31.72 32.00 31.74
22.96 25.08 24.93 23.80 23.78 24.71 26.30 25.36 24.84 24.57 24.13 21.52 22.00 23.40 29.75 31.70 31.99 31.80 31.65 33.57 34.21 34.62 34.70 34.71 35.01 34.67 34.28 34.64 34.12 33.91 32.97 32.61 32.76 32.17 31.86 31.87 31.80 31.43 32.17 31.76 32.01 31.84 32.00 31.76
22.70 21.80 23.78 24.90 23.76 25.60 25.29 24.34 23.87 21.88 21.19 22.02 20.96 20.20 28.28 32.80 33.15 30.80 31.41 32.50 34.15 34.57 34.34 34.01 33.42 32.73 33.37 33.18 33.60 33.39 33.00 32.25 32.56 32.42 31.93 31.63 31.22 31.25 31.07 31.27 31.75 30.90 31.53 31.13
24.28 21.19 21.57 23.21 22.58 23.70 23.01 23.35 24.88 17.44 19.93 22.82 19.55 20.94 30.97 30.52 29.75 30.66 30.37 31.18 32.81 33.72 33.96 33.88 33.49 33.38 33.51 33.11 33.72 33.49 32.89 32.77 32.60 32.24 32.29 32.10 31.67 32.60 32.53 31.49 31.81 31.58 31.25 30.59
21.59 19.45 21.32 22.24 22.98 22.22 21.30 21.51 22.32 17.71 9.90 17.53 25.45 27.57 32.28 29.82 30.77 30.55 29.33 30.02 30.15 31.79 33.23 33.66 34.00 34.02 33.94 33.62 33.80 33.79 33.57 33.48 33.35 32.74 32.63 31.92 31.83 31.24 31.37 30.77 31.11 31.59 30.70 29.80
23.11 18.70 19.01 20.76 22.93 22.63 21.08 23.38 19.85 20.58 15.61 15.07 22.52 20.68 27.24 30.03 29.93 31.59 30.80 30.43 30.42 30.50 31.97 33.34 33.98 33.78 33.99 34.45 34.63 34.46 34.37 33.88 34.04 33.47 32.87 32.41 32.05 31.63 31.53 31.10 30.31 30.10 30.22 29.08
21.32 23.82 15.55 18.78 17.52 20.74 18.47 19.73 17.30 19.87 19.91 19.29 18.75 25.32 30.59 28.56 29.46 29.79 30.65 30.81 30.77 31.02 30.91 32.42 33.69 34.27 33.90 34.18 34.08 33.66 33.54 33.27 33.09 33.11 33.16 32.24 32.06 31.62 31.09 30.36 30.45 30.17 29.81 28.80
21.85 23.78 18.45 18.57 18.27 19.31 18.11 20.91 22.13 21.91 16.04 15.93 15.79 21.86 29.60 29.67 29.74 29.44 29.70 30.95 30.82 30.83 31.52 32.21 32.89 33.36 32.57 32.57 32.80 33.01 33.01 32.77 33.28 33.26 32.81 32.15 32.27 31.70 30.58 30.18 30.09 29.80 28.63 28.60
22.26 20.65 18.49 16.90 17.02 16.63 15.33 18.05 19.57 17.44 18.16 14.77 18.48 24.50 26.69 27.68 28.88 29.45 29.14 30.91 31.10 29.43 29.64 29.80 30.92 31.16 31.41 31.85 31.99 31.90 32.14 32.10 32.83 32.43 32.10 31.87 31.50 31.06 30.73 30.51 30.04 29.35 28.07 27.33
23.98 16.44 20.21 23.41 22.08 18.80 13.00 13.45 18.07 18.83 17.53 19.76 19.66 25.13 28.86 30.26 30.29 31.23 29.89 30.41 31.28 30.88 28.82 28.98 29.34 30.07 30.50 30.76 31.08 31.57 31.58 31.95 31.58 31.32 31.27 31.01 30.96 30.63 30.81 30.71 29.82 29.09 28.25 26.54
20.60 17.59 9.10 13.76 15.44 14.04 15.83 12.69 13.95 13.96 20.71 19.54 25.63 24.53 28.38 29.68 28.14 28.51 28.93 29.56 29.21 30.24 29.31 28.63 28.55 29.67 29.88 29.75 30.32 30.62 30.97 30.44 30.53 30.27 29.97 30.11 30.53 30.73 30.47 29.50 29.14 29.01 28.07 27.03
12.56 15.59 6.85 11.53 13.62 13.62 11.00 12.54 13.50 17.02 19.65 20.40 21.45 21.21 29.31 30.23 30.29 27.53 28.87 28.61 27.55 28.78 30.03 29.61 29.06 29.44 29.23 29.56 30.46 29.28 29.49 29.23 29.41 29.24 29.11 29.65 29.03 29.14 28.93 28.72 28.17 27.77 27.12 26.66
15.12 10.73 12.17 15.70 12.22 13.45 12.28 10.13 13.41 16.32 17.34 20.54 17.79 24.58 29.55 25.90 25.54 26.99 27.69 28.25 27.84 28.25 28.64 29.04 29.61 29.93 29.92 30.21 30.00 29.14 29.09 28.78 27.76 28.21 28.68 28.46 28.65 28.30 28.35 28.22 27.58 26.60 26.28 26.37
9.25 12.06 11.58 15.06 8.78 10.83 20.10 17.86 18.02 18.70 21.25 19.34 21.43 23.40 23.28 23.28 25.46 25.51 26.67 25.80 26.33 27.72 27.80 28.63 29.72 30.08 30.29 30.04 29.29 28.91 28.10 27.52 27.47 27.56 27.52 27.92 26.86 26.48 26.74 26.20 25.94 26.41 26.46 25.35
14.33 14.11 8.59 12.39 12.78 17.41 23.10 15.14 14.98 14.38 22.24 22.20 20.90 23.59 24.94 22.34 22.01 26.03 24.60 24.41 25.85 27.28 27.98 29.91 29.91 29.14 28.72 28.52 28.14 27.78 26.96 26.58 25.90 25.14 25.47 25.04 24.72 24.12 24.39 24.10 24.88 25.93 26.00 25.10
13.07 13.31 16.48 5.24 10.68 10.24 19.62 17.46 17.64 17.91 17.58 20.29 21.57 22.58 22.47 20.99 24.48 26.30 23.04 23.58 26.20 26.58 26.86 27.43 27.30 26.74 25.97 25.44 26.37 26.07 23.32 23.36 20.74 20.67 20.74 21.42 21.23 21.34 21.69 22.98 23.38 25.30 24.79 24.29
10.26 11.16 10.13 10.01 11.50 14.64 20.85 17.58 17.02 16.36 20.20 19.38 21.26 21.44 20.55 23.13 24.55 22.25 23.11 22.29 23.55 23.08 23.65 24.64 23.16 20.93 20.10 21.01 22.35 19.98 19.77 16.25 16.72 17.00 17.50 18.04 18.75 18.84 20.14 21.01 22.19 22.19 22.04 21.69
10.32 9.24 7.63 7.59 7.63 7.32 18.44 16.30 17.70 21.65 19.13 20.93 20.39 20.21 20.44 21.90 22.30 21.64 20.06 18.65 18.97 18.06 17.34 18.59 18.52 16.31 14.44 15.00 16.21 15.75 13.73 13.53 13.01 13.27 13.90 14.65 15.43 16.88 18.43 18.64 19.56 19.93 19.33 18.05
13.12 17.56 13.18 15.11 15.76 19.52 19.83 20.46 20.53 20.21 21.22 19.72 19.76 19.58 19.61 20.90 19.02 19.47 17.09 14.78 12.89 12.86 13.70 14.28 14.54 12.12 9.54 10.13 10.63 10.58 10.52 9.76 8.84 8.61 9.45 11.43 13.28 14.40 15.67 15.57 17.41 18.43 17.81 16.96
13.47 14.75 16.50 15.41 19.86 18.96 18.76 20.47 18.53 18.10 17.69 16.57 16.05 14.92 16.39 16.31 15.39 14.95 14.47 12.90 12.26 11.60 10.42 11.01 11.38 9.40 8.55 8.03 8.50 7.74 8.00 6.37 5.26 5.92 7.56 10.16 11.76 13.08 14.25 15.22 16.27 16.97 17.42 16.52
16.98 15.92 15.22 14.98 17.79 17.82 15.50 15.49 15.50 14.17 14.50 13.68 12.36 11.54 11.43 12.91 10.41 11.48 9.93 9.28 9.32 9.32 8.49 8.15 7.58 7.32 6.84 6.89 6.88 6.84 5.46 4.28 4.06 5.17 7.02 9.42 11.35 12.26 12.70 14.00 14.25 14.26 15.85 15.95
16.39 16.82 16.52 18.25 19.78 19.66 12.99 10.69 12.56 11.39 10.13 10.65 11.02 8.86 7.88 8.68 7.07 7.94 7.02 6.61 5.93 5.86 5.63 4.76 4.63 3.78 3.95 4.29 4.36 4.56 2.88 2.22 0.93 2.77 5.88 7.03 7.54 9.26 10.76 11.48 12.31 16.06 17.61 19.34
MSLP
1023.56 1023.36 1024.10 1024.77 1024.44 1024.09 1023.73 1023.81 1024.15 1025.02 1025.92 1025.75 1024.71 1024.23 1023.91 1024.88 1025.41 1025.42 1025.80 1026.47 1026.88 1027.55 1028.45 1029.43 1030.16 1030.72 1030.99 1031.11 1031.11 1031.11 1031.08 1031.20 1030.90 1030.84 1030.66 1030.74 1030.90 1030.99 1031.10 1031.16 1031.16 1030.89 1030.69 1030.24
1024.38 1025.28 1026.54 1026.47 1025.91 1025.35 1024.96 1024.82 1024.92 1025.59 1026.25 1026.05 1024.62 1023.39 1022.49 1023.00 1023.13 1023.64 1024.35 1025.07 1025.81 1026.89 1028.03 1029.01 1029.69 1030.23 1030.54 1030.71 1030.97 1031.11 1031.18 1031.21 1031.21 1031.11 1031.31 1031.22 1031.18 1031.50 1031.52 1031.48 1031.51 1031.39 1031.14 1030.87
1025.32 1027.19 1027.49 1027.12 1026.79 1026.53 1026.48 1026.21 1026.27 1026.44 1026.26 1026.00 1024.90 1021.79 1021.23 1021.46 1022.04 1022.73 1023.03 1023.81 1024.94 1025.77 1026.98 1028.06 1028.99 1029.60 1030.06 1030.44 1030.78 1031.01 1031.20 1031.33 1031.46 1031.59 1031.60 1031.65 1031.56 1031.37 1031.15 1031.39 1031.45 1031.69 1031.50 1031.29
1027.23 1028.08 1028.07 1027.91 1027.82 1027.59 1027.58 1027.75 1027.48 1027.21 1026.56 1025.62 1025.24 1021.85 1020.33 1020.61 1021.00 1021.42 1022.19 1022.96 1023.80 1025.03 1026.19 1027.22 1028.18 1028.92 1029.50 1029.97 1030.56 1030.95 1031.24 1031.40 1031.67 1031.76 1031.48 1031.28 1031.03 1031.14 1031.65 1031.64 1031.73 1031.74 1031.80 1031.56
1028.62 1028.81 1028.85 1028.76 1029.07 1028.75 1028.68 1028.42 1027.85 1027.42 1026.86 1026.33 1025.19 1023.73 1019.38 1020.21 1019.64 1020.09 1020.88 1021.84 1022.82 1023.95 1025.03 1026.10 1027.25 1028.06 1028.92 1029.68 1030.33 1030.82 1031.20 1031.46 1031.81 1031.87 1031.66 1031.50 1031.48 1031.68 1031.85 1031.83 1031.77 1031.81 1031.79 1031.76
1029.08 1029.95 1029.94 1030.01 1030.18 1029.77 1029.49 1028.83 1028.24 1027.67 1026.90 1026.10 1025.23 1024.25 1019.27 1019.44 1019.59 1019.97 1020.73 1021.21 1022.18 1023.27 1024.22 1025.35 1026.43 1027.63 1028.48 1029.41 1030.10 1030.60 1030.98 1031.28 1031.63 1031.81 1031.82 1031.65 1031.57 1031.64 1031.57 1031.65 1031.56 1031.62 1031.61 1031.67
1029.26 1030.08 1030.71 1030.88 1030.43 1030.34 1029.66 1028.78 1027.79 1027.45 1026.82 1025.83 1025.80 1024.64 1020.27 1019.63 1020.18 1020.83 1021.08 1021.39 1021.85 1022.89 1023.82 1024.82 1025.98 1027.13 1028.00 1028.82 1029.54 1030.20 1030.63 1030.91 1031.33 1031.55 1031.63 1031.63 1031.61 1031.61 1031.53 1031.57 1031.59 1031.57 1031.52 1031.59
1028.75 1030.33 1030.86 1031.35 1031.23 1030.67 1029.98 1029.16 1027.84 1027.37 1027.08 1026.23 1025.91 1023.19 1019.88 1020.43 1021.11 1021.57 1021.80 1021.92 1022.14 1022.74 1023.59 1024.35 1025.43 1026.36 1027.22 1028.19 1028.93 1029.58 1030.10 1030.41 1030.89 1031.17 1031.30 1031.49 1031.57 1031.52 1031.54 1031.58 1031.62 1031.63 1031.67 1031.76
1028.89 1030.49 1031.64 1031.63 1031.41 1031.78 1031.07 1030.31 1029.60 1028.37 1028.88 1027.01 1023.70 1021.61 1020.35 1020.29 1020.92 1021.44 1021.77 1022.19 1022.51 1022.99 1023.58 1024.15 1024.98 1025.81 1026.70 1027.59 1028.19 1028.80 1029.39 1029.94 1030.38 1030.74 1031.00 1031.17 1031.32 1031.42 1031.38 1031.52 1031.63 1031.60 1031.79 1031.91
1028.67 1030.31 1031.90 1032.34 1032.22 1032.17 1031.46 1031.06 1030.46 1029.18 1027.80 1025.95 1023.24 1022.13 1020.48 1020.36 1020.61 1021.22 1021.68 1022.19 1022.55 1023.16 1023.57 1024.00 1024.63 1025.43 1026.28 1026.98 1027.67 1028.42 1028.92 1029.30 1029.78 1030.28 1030.62 1030.79 1030.95 1031.19 1031.28 1031.38 1031.39 1031.49 1031.60 1031.88
1029.30 1029.43 1032.16 1032.10 1032.20 1031.47 1032.11 1031.26 1030.77 1029.87 1028.21 1026.23 1023.81 1020.93 1020.62 1020.94 1021.05 1021.19 1021.79 1022.21 1022.48 1022.81 1023.25 1023.61 1024.17 1024.82 1025.73 1026.60 1027.27 1027.91 1028.51 1028.97 1029.41 1029.83 1030.30 1030.63 1030.71 1030.91 1031.11 1031.20 1031.25 1031.31 1031.45 1031.68
1029.41 1029.54 1030.67 1031.25 1031.98 1032.71 1032.10 1030.85 1030.00 1029.15 1028.55 1027.36 1025.78 1021.45 1020.82 1021.23 1021.54 1021.74 1021.89 1022.23 1022.60 1022.99 1023.34 1023.76 1024.20 1024.78 1025.48 1026.11 1026.80 1027.39 1028.05 1028.55 1028.90 1029.33 1029.90 1030.25 1030.42 1030.53 1030.70 1030.78 1030.98 1031.29 1031.38 1031.47
1029.54 1029.91 1030.65 1031.48 1032.02 1032.84 1032.92 1031.59 1030.42 1029.96 1028.94 1027.37 1025.40 1021.29 1021.35 1021.40 1021.55 1022.01 1022.25 1022.54 1022.62 1022.98 1023.31 1023.73 1024.16 1024.58 1025.18 1025.86 1026.61 1027.23 1027.68 1028.08 1028.52 1029.01 1029.41 1029.70 1029.92 1030.11 1030.07 1030.17 1030.44 1030.75 1031.19 1031.42
1029.71 1030.31 1029.76 1029.61 1029.57 1030.57 1031.82 1031.49 1030.88 1030.04 1028.85 1026.46 1023.77 1021.42 1021.29 1020.94 1021.11 1021.58 1022.03 1022.34 1022.45 1022.66 1023.05 1023.31 1023.75 1024.20 1024.94 1025.62 1026.23 1026.73 1027.20 1027.71 1028.18 1028.58 1028.88 1029.11 1029.38 1029.57 1029.51 1029.53 1029.82 1030.15 1030.55 1030.97
1030.56 1030.53 1031.15 1030.22 1030.13 1030.59 1030.70 1030.80 1030.69 1029.83 1027.37 1025.87 1022.22 1021.54 1020.95 1021.35 1021.89 1022.10 1022.33 1022.36 1022.44 1022.44 1022.75 1023.06 1023.39 1023.87 1024.41 1025.15 1025.84 1026.44 1026.91 1027.44 1027.82 1028.13 1028.53 1028.76 1029.13 1029.25 1029.17 1029.22 1029.36 1029.56 1029.89 1030.21
1032.00 1031.83 1031.38 1031.14 1030.49 1030.46 1030.60 1030.30 1030.06 1028.93 1027.60 1025.77 1023.91 1021.76 1021.47 1021.94 1022.13 1022.44 1022.40 1022.39 1022.39 1022.40 1022.49 1022.81 1023.28 1023.76 1024.28 1024.94 1025.56 1026.20 1026.64 1027.08 1027.55 1027.80 1028.06 1028.52 1028.89 1028.91 1028.85 1028.94 1029.09 1029.28 1029.44 1029.60
1032.27 1032.06 1032.03 1030.88 1030.86 1030.31 1029.34 1028.04 1027.76 1027.44 1026.54 1025.00 1024.27 1021.15 1021.61 1022.43 1022.82 1022.92 1022.81 1022.85 1022.69 1022.71 1022.83 1023.01 1023.31 1023.78 1024.38 1024.96 1025.48 1025.93 1026.39 1026.96 1027.38 1027.68 1028.05 1028.39 1028.51 1028.45 1028.50 1028.66 1028.78 1028.87 1028.95 1029.09
1032.27 1031.93 1031.73 1031.39 1030.97 1028.97 1025.97 1026.23 1026.21 1025.86 1024.73 1024.53 1023.44 1022.27 1023.17 1023.34 1023.40 1023.62 1023.68 1023.44 1023.20 1023.26 1023.22 1023.25 1023.48 1023.84 1024.41 1025.07 1025.58 1026.02 1026.55 1026.96 1027.37 1027.78 1028.10 1028.22 1028.34 1028.38 1028.39 1028.40 1028.36 1028.34 1028.42 1028.51
1032.08 1031.51 1031.61 1031.56 1029.89 1026.19 1024.61 1026.07 1026.36 1025.83 1023.97 1023.08 1023.14 1023.06 1023.84 1024.11 1024.23 1023.95 1024.50 1024.34 1023.99 1023.94 1023.88 1023.82 1024.17 1024.67 1025.17 1025.65 1026.08 1026.52 1027.06 1027.52 1028.01 1028.36 1028.35 1028.52 1028.58 1028.48 1028.33 1028.11 1027.98 1027.93 1027.93 1027.93
1032.39 1031.70 1030.53 1031.38 1029.35 1026.33 1024.46 1025.01 1025.60 1025.67 1024.66 1023.59 1023.77 1023.95 1024.24 1024.77 1024.66 1024.87 1025.24 1025.32 1024.92 1024.93 1024.99 1025.08 1025.46 1025.90 1026.29 1026.80 1026.95 1027.30 1028.02 1028.46 1028.94 1029.13 1029.19 1029.04 1028.81 1028.55 1028.20 1027.92 1027.74 1027.47 1027.38 1027.16
1031.93 1031.52 1030.21 1029.68 1028.24 1025.59 1024.40 1025.30 1026.20 1025.97 1025.01 1024.38 1024.57 1024.90 1025.19 1025.22 1025.57 1026.10 1026.36 1026.60 1026.69 1026.68 1026.68 1026.92 1027.35 1027.83 1028.37 1028.49 1028.37 1028.70 1029.09 1029.61 1029.91 1029.84 1029.56 1029.13 1028.67 1028.46 1028.24 1027.85 1027.46 1027.17 1026.96 1026.84
1028.66 1029.29 1029.51 1029.79 1028.58 1026.16 1024.67 1026.18 1026.04 1025.11 1025.29 1025.49 1025.93 1026.25 1026.18 1026.28 1026.46 1026.89 1027.43 1027.94 1028.26 1028.43 1028.61 1028.80 1029.03 1029.64 1030.16 1030.21 1029.92 1029.99 1030.35 1030.76 1030.66 1030.36 1029.82 1029.11 1028.82 1028.71 1028.34 1027.87 1027.25 1026.84 1026.64 1026.56
1026.90 1025.52 1026.09 1026.30 1024.91 1024.22 1024.65 1024.87 1025.35 1025.61 1025.86 1026.64 1026.97 1027.30 1027.37 1027.19 1027.79 1028.14 1028.76 1029.43 1029.97 1030.24 1030.39 1030.54 1030.58 1031.04 1031.46 1031.50 1031.43 1031.28 1031.49 1031.47 1031.15 1030.75 1030.12 1029.53 1029.22 1028.86 1028.35 1027.79 1026.98 1026.57 1026.36 1026.16
1025.54 1025.50 1025.40 1025.55 1024.00 1024.58 1025.23 1025.86 1026.55 1026.85 1027.16 1027.87 1028.36 1028.69 1028.70 1028.78 1029.35 1029.68 1030.02 1030.67 1031.19 1031.59 1031.78 1031.84 1031.70 1031.96 1032.15 1032.30 1032.35 1032.41 1032.29 1032.26 1031.79 1031.10 1030.55 1029.97 1029.33 1028.71 1028.14 1027.54 1026.90 1026.37 1026.00 1025.76
1024.79 1025.25 1025.28 1024.97 1024.78 1025.60 1026.44 1027.07 1027.68 1028.30 1028.76 1029.17 1029.73 1030.06 1030.29 1030.52 1030.99 1031.25 1031.72 1032.16 1032.48 1032.68 1032.89 1032.93 1032.87 1032.90 1032.95 1032.98 1032.90 1032.85 1032.71 1032.66 1032.16 1031.42 1030.75 1030.03 1029.27 1028.58 1027.85 1027.19 1026.66 1026.17 1025.80 1025.64
1024.33 1024.37 1024.91 1024.44 1024.74 1025.45 1027.21 1028.45 1028.95 1029.33 1029.99 1030.52 1030.82 1031.45 1032.01 1032.16 1032.53 1032.80 1033.17 1033.58 1033.78 1033.81 1033.96 1033.92 1033.88 1033.83 1033.69 1033.52 1033.36 1033.24 1033.25 1033.14 1032.77 1031.87 1030.99 1030.31 1029.57 1028.58 1027.77 1026.92 1026.07 1025.56 1025.06 1024.57
Wind_Speed
4 2 3 4 4 3 5 2 2 1 2 4 7 14 15 11 16 17 16 16 16 14 11 10 9 7 6 5 5 5 5 5 3 3 3 5 6 6 7 7 10 11 11 12
3 4 2 2 2 2 1 1 3 1 0 4 8 17 19 16 21 21 20 20 18 15 12 12 11 9 8 7 6 5 5 5 5 3 3 3 3 5 5 5 8 10 10 11
3 5 2 2 4 3 2 3 1 4 4 2 10 11 5 5 18 15 22 18 19 18 17 16 14 12 10 9 8 6 6 5 4 4 4 4 4 3 4 5 5 7 9 9
7 1 2 4 3 1 3 1 1 2 4 5 5 9 7 2 10 17 17 20 20 19 17 15 15 14 13 11 9 7 6 6 4 3 4 4 4 4 3 4 4 5 7 8
4 3 3 2 4 3 4 2 3 1 1 5 2 6 2 2 9 10 15 19 21 20 20 18 18 16 14 11 10 8 7 6 6 5 4 3 5 4 3 3 4 5 5 7
5 2 4 3 4 2 8 3 2 2 1 4 2 4 5 3 3 2 3 11 18 20 20 18 17 14 13 10 10 9 8 7 6 5 5 4 5 4 3 3 3 3 3 4
2 3 2 1 5 2 2 3 1 2 3 3 1 5 12 11 10 7 10 6 12 18 19 18 17 15 14 14 13 10 10 9 8 7 6 5 3 3 2 2 2 3 3 3
5 4 2 2 3 2 3 3 2 4 3 3 2 8 4 2 5 6 6 6 6 15 17 18 18 17 16 16 15 13 11 10 9 8 7 5 5 3 2 1 0 1 2 3
5 4 1 2 2 2 4 4 3 6 2 3 5 6 11 8 5 8 6 4 3 10 16 18 17 16 16 15 15 14 12 10 9 8 7 7 6 6 4 4 3 1 1 1
5 5 1 1 2 5 2 5 3 0 4 6 5 7 9 6 5 9 9 5 3 6 13 16 16 16 14 14 13 12 11 10 9 8 7 7 7 7 6 5 5 5 3 3
3 2 3 2 8 7 5 4 1 3 3 4 5 5 4 5 3 4 7 6 4 7 12 15 15 15 14 12 12 12 11 11 9 9 8 8 8 8 7 7 6 6 5 5
4 2 4 2 4 4 3 4 8 5 6 2 4 11 5 6 6 5 5 6 3 5 7 12 14 14 14 13 12 12 10 11 11 9 9 9 8 8 8 8 8 7 7 6
7 3 3 3 3 1 6 5 4 4 1 7 5 7 1 4 7 3 4 7 4 3 6 9 13 14 13 12 11 11 11 11 10 9 10 10 9 9 9 9 9 9 8 7
3 1 5 5 4 6 6 6 11 5 4 5 12 22 9 11 11 6 4 7 9 6 6 9 12 14 12 11 11 11 11 10 9 10 11 10 9 8 7 7 8 9 9 8
2 6 2 4 3 4 3 6 13 14 14 12 18 22 10 7 4 7 12 12 10 9 7 9 12 13 13 11 11 10 9 9 9 10 10 9 6 7 6 6 7 8 9 8
1 3 4 4 3 8 5 9 12 19 13 21 21 27 18 15 12 10 9 10 9 9 8 7 10 12 11 11 10 8 8 8 8 10 10 6 6 6 6 6 7 8 9 9
6 7 4 3 3 4 10 15 21 11 9 14 15 21 10 3 4 9 11 10 11 9 7 6 9 9 8 8 7 8 8 7 8 8 6 6 6 5 5 6 7 9 10 9
7 5 1 1 2 8 2 3 6 18 11 18 12 15 2 4 9 11 9 12 11 8 7 4 6 7 6 5 5 5 6 6 6 5 6 4 3 5 5 6 8 9 9 9
1 5 4 4 6 9 5 7 8 10 8 15 19 17 8 4 4 3 8 8 6 6 6 3 3 5 6 5 5 4 4 4 2 1 3 4 4 5 6 7 7 8 9 10
4 3 2 4 6 9 1 3 4 3 8 4 8 5 5 3 2 3 12 9 6 8 6 5 7 9 9 7 4 5 6 5 6 6 7 7 6 7 8 9 9 9 9 10
5 3 11 7 7 9 5 7 5 6 1 3 4 3 5 2 3 2 6 10 11 11 12 11 11 10 10 9 7 7 6 7 8 7 8 8 8 9 10 11 9 9 9 8
12 12 7 4 5 12 9 7 7 3 3 4 4 3 2 3 4 5 8 9 10 11 12 11 9 9 10 10 8 7 8 8 9 9 9 10 10 9 9 11 10 9 8 8
7 8 9 12 9 2 12 4 4 2 4 4 2 4 5 3 4 4 6 8 9 9 9 9 8 7 7 9 9 8 8 9 10 9 9 9 10 10 9 10 10 8 7 7
5 4 3 3 5 9 6 5 4 4 5 5 5 5 5 4 5 6 6 7 7 8 8 8 7 7 7 9 8 7 8 9 8 9 9 9 8 9 8 7 6 7 7 7
2 11 6 5 4 3 2 3 4 7 7 8 9 8 8 6 7 6 6 7 7 7 7 8 8 7 8 9 8 8 9 9 9 9 8 9 8 9 9 7 6 6 8 8
7 8 7 7 2 2 5 6 5 8 7 7 6 7 8 7 7 5 6 6 6 7 7 7 7 7 8 9 9 9 9 9 9 10 8 8 9 8 8 8 9 11 15 18
Wind_Direction
31 132 91 49 32 68 106 136 257 172 45 288 262 272 267 215 219 225 219 212 212 209 192 183 181 177 171 160 148 121 107 82 112 119 97 76 65 61 56 49 40 38 34 31
124 74 54 45 48 74 107 230 251 169 68 267 297 280 268 227 226 222 218 216 211 204 190 190 190 189 192 174 166 150 117 90 75 82 89 72 83 74 62 56 49 37 37 33
95 115 195 160 117 137 35 293 292 309 314 224 298 263 256 232 236 231 227 222 213 204 196 192 193 196 193 192 183 173 150 123 99 107 129 129 124 117 88 57 50 41 37 36
72 144 159 134 111 218 171 67 350 318 293 309 339 297 279 238 245 230 233 221 214 205 201 194 193 196 196 194 182 178 166 156 139 139 119 97 84 92 70 60 57 56 40 39
112 129 142 120 56 331 90 141 118 117 275 302 130 265 233 250 275 254 231 223 217 204 198 195 194 196 194 187 187 185 178 175 164 159 144 129 111 111 117 108 88 66 56 41
82 42 17 71 76 48 137 125 107 107 298 245 50 280 296 221 230 299 334 230 218 207 199 195 194 189 189 187 189 188 189 190 182 185 173 146 127 123 125 92 76 59 55 43
116 59 80 15 111 114 212 196 233 243 208 282 74 247 269 277 293 295 301 283 223 207 198 193 186 187 189 190 191 192 196 196 194 198 197 189 168 157 114 90 57 37 39 33
179 184 150 23 360 292 165 267 218 243 254 339 126 245 253 65 325 298 289 288 250 211 200 195 191 190 192 192 192 193 195 200 195 202 206 207 210 215 209 188 95 46 20 19
144 117 60 68 109 314 147 225 19 106 87 265 245 263 269 100 45 21 336 286 252 215 208 198 193 193 193 193 194 194 196 200 198 204 210 213 217 221 225 218 225 241 263 328
163 114 1 85 158 75 271 132 141 243 219 240 235 271 255 338 11 0 11 334 269 218 210 206 197 194 194 195 192 194 200 201 201 208 218 226 225 227 228 225 228 231 236 239
134 271 121 157 213 178 157 189 115 321 262 253 286 248 185 224 275 327 345 328 277 220 212 208 202 196 191 189 188 194 200 202 206 209 220 228 231 227 226 229 231 230 230 234
163 101 173 145 72 353 323 210 191 222 194 269 340 270 173 250 272 260 318 342 314 264 239 222 206 195 188 190 189 196 199 205 210 208 215 226 234 229 226 229 226 218 225 224
182 189 155 179 125 47 248 203 175 97 25 200 236 249 160 258 251 221 303 318 340 285 234 216 209 201 194 189 190 197 204 208 207 206 212 219 223 224 228 227 223 214 213 219
132 123 240 232 111 114 194 199 202 187 190 215 230 274 226 259 269 296 328 330 315 282 239 218 210 199 192 190 195 202 208 205 201 204 210 215 218 225 229 227 220 216 210 214
187 199 214 285 221 193 194 171 189 205 213 213 263 247 261 269 311 316 307 307 298 288 248 222 208 198 189 191 203 211 214 200 202 205 210 214 223 232 233 229 224 221 218 221
336 184 138 275 232 228 246 218 212 221 234 250 261 277 274 280 271 280 297 300 290 288 279 232 209 198 194 199 207 203 205 206 194 204 211 207 221 229 234 233 228 224 226 227
169 148 150 248 337 287 263 204 201 199 209 220 230 243 295 276 293 301 304 298 293 300 302 249 216 202 197 201 199 199 192 182 194 207 203 215 228 243 249 246 238 234 233 231
147 130 136 269 261 247 358 129 195 213 237 214 257 256 261 273 296 298 303 288 288 303 305 251 198 187 179 158 158 146 155 177 191 196 215 233 255 261 269 252 248 250 241 232
282 140 136 209 218 308 229 196 179 179 261 212 225 255 267 270 294 186 11 341 306 323 322 247 120 109 112 116 115 126 125 105 118 26 331 340 328 305 294 281 269 260 247 238
89 47 227 151 226 236 74 159 154 174 267 164 195 231 200 184 219 70 354 359 37 48 35 70 88 87 77 49 57 96 72 79 46 7 335 321 317 305 296 289 278 270 247 246
161 186 217 206 243 281 224 142 162 182 286 130 150 124 153 163 21 57 38 44 52 54 52 62 66 66 50 33 40 58 57 36 354 337 323 319 328 319 300 289 279 270 260 249
170 164 180 163 215 266 146 113 205 71 64 92 102 92 64 342 356 72 68 61 50 48 40 35 55 55 36 25 26 30 31 0 348 338 329 334 328 313 302 292 284 268 253 246
208 197 180 198 206 59 191 39 99 64 114 97 69 12 330 337 52 66 72 59 52 43 36 29 39 45 37 25 25 15 4 353 344 335 331 325 316 307 303 296 288 278 252 249
227 172 210 175 191 220 198 145 85 66 95 80 65 59 40 85 45 61 62 50 40 38 31 20 23 29 21 13 12 6 356 344 335 331 325 317 309 312 306 302 292 280 266 254
122 150 175 259 259 133 133 95 120 105 96 100 79 67 61 84 59 52 49 38 29 21 20 18 13 6 0 353 351 352 355 343 335 327 317 314 314 311 309 301 290 277 270 264
193 170 188 241 135 123 103 120 111 113 99 89 110 96 67 64 65 52 53 33 16 11 9 4 360 351 344 338 336 344 349 342 334 326 324 320 313 312 308 307 303 284 280 277